FW6053 Weather Reports


time (UTC)temp
F
wind
direction
speed
knots
gust
knots
rain 1hr
in
rain 24hr
in
rain mn
in
humidity
%
barometer
mb
20260506143056 51 165 3.5 7.0 0.00 0.00 0.00 58 1016.1
20260506141554 52 179 6.1 14.8 0.00 0.00 0.00 57 1016.2
20260506140053 50 170 3.5 8.7 0.00 0.00 0.00 59 1016.2
20260506134554 49 195 1.7 4.3 0.00 0.00 0.00 59 1016.2
20260506133053 49 157 2.6 7.8 0.00 0.00 0.00 61 1016.3
20260506131601 50 171 1.7 9.6 0.00 0.00 0.00 60 1016.5
20260506130056 51 156 2.6 8.7 0.00 0.00 0.00 54 1016.4
20260506124557 52 162 3.5 8.7 0.00 0.00 0.00 51 1016.3
20260506123112 50 229 2.6 5.2 0.00 0.00 0.00 57 1016.5
20260506121608 49 160 1.7 9.6 0.00 0.00 0.00 58 1016.6
20260506120059 49 189 2.6 8.7 0.00 0.00 0.00 57 1016.6
20260506114557 50 171 3.5 7.8 0.00 0.00 0.00 58 1016.6
20260506113053 51 166 2.6 7.8 0.00 0.00 0.00 57 1016.8
20260506111555 51 226 3.5 8.7 0.00 0.00 0.00 56 1016.9
20260506104557 49 277 1.7 10.4 0.00 0.00 0.00 61 1017.2
20260506103058 48 183 2.6 7.0 0.00 0.00 0.00 62 1017.1
20260506101609 49 240 0.9 9.6 0.00 0.00 0.00 63 1017.1
20260506100050 50 275 0.9 6.1 0.00 0.00 0.00 63 1017.4
20260506094558 48 190 3.5 8.7 0.00 0.00 0.00 63 1017.4
20260506093058 47 229 0.9 7.0 0.00 0.00 0.00 62 1017.6
20260506091556 47 212 0.9 7.8 0.00 0.00 0.00 65 1017.6
20260506084615 46 199 2.6 5.2 0.00 0.00 0.00 69 1017.9
20260506083053 45 203 1.7 5.2 0.00 0.00 0.00 70 1018.0
20260506081603 46 0 1.7 4.3 0.00 0.00 0.00 72 1018.0
20260506073054 42 0 0.0 0.0 0.00 0.00 0.00 82 1018.1
20260506071556 41 0 0.0 1.7 0.00 0.00 0.00 84 1018.3
20260506061556 36 0 0.0 0.0 0.00 0.00 0.00 89 1018.2
20260506050113 34 0 0.0 0.0 0.00 0.00 0.00 89 1018.4
20260506044554 34 0 0.0 1.7 0.00 0.00 0.00 89 1018.2
20260506043054 33 0 0.0 1.7 0.00 0.00 0.00 88 1018.2
20260506041601 33 0 0.0 0.0 0.00 0.00 0.00 88 1018.2
20260506040057 33 0 0.0 0.0 0.00 0.00 0.00 88 1018.3
20260506034555 33 0 0.0 0.0 0.00 0.00 0.00 87 1018.2
20260506033053 34 0 0.0 0.0 0.00 0.00 0.00 87 1018.1
20260506031552 34 0 0.0 0.0 0.00 0.00 0.00 87 1018.2
20260506030059 34 0 0.0 0.0 0.00 0.00 0.00 87 1018.4
20260506024606 34 0 0.0 0.0 0.00 0.00 0.00 87 1018.4
20260506023111 34 0 0.0 0.0 0.00 0.00 0.00 86 1018.3
20260506021552 34 0 0.0 0.0 0.00 0.00 0.00 85 1018.5
20260506020056 34 0 0.0 0.0 0.00 0.00 0.00 85 1018.5
20260506014559 35 0 0.0 0.0 0.00 0.00 0.00 84 1018.6
20260506013056 35 0 0.0 1.7 0.00 0.00 0.00 84 1018.6
20260506011552 35 0 0.0 1.7 0.00 0.00 0.00 83 1018.7
20260506010055 35 0 0.0 0.0 0.00 0.00 0.00 83 1018.7
20260506004558 35 0 0.0 0.9 0.00 0.00 0.00 83 1018.8
20260506003059 35 0 0.0 0.9 0.00 0.00 0.00 82 1018.9
20260506001558 36 0 0.0 1.7 0.00 0.00 0.00 82 1018.9
20260505234558 37 0 0.0 0.0 0.00 0.00 0.00 81 1019.0
20260505233056 38 0 0.0 0.0 0.00 0.00 0.00 80 1019.1
20260505231554 38 0 0.0 0.0 0.00 0.00 0.00 78 1019.2
20260505230120 39 0 0.0 0.0 0.00 0.00 0.00 78 1019.2
20260505224552 39 0 0.0 0.9 0.00 0.00 0.00 77 1019.1
20260505223054 40 86 0.0 1.7 0.00 0.00 0.00 77 1019.2
20260505221557 40 0 0.0 0.0 0.00 0.00 0.00 77 1019.2
20260505220056 41 0 0.0 0.9 0.00 0.00 0.00 77 1019.3
20260505214559 41 0 0.0 0.9 0.00 0.00 0.00 76 1019.3
20260505213052 41 0 0.0 0.9 0.00 0.00 0.00 76 1019.4
20260505211603 42 0 0.0 0.9 0.00 0.00 0.00 76 1019.4
20260505204603 42 0 0.0 0.9 0.00 0.00 0.00 74 1019.4
20260505203102 42 86 0.0 1.7 0.00 0.00 0.00 74 1019.3
20260505201555 43 86 0.9 2.6 0.00 0.00 0.00 73 1019.3
20260505200107 43 0 0.9 5.2 0.00 0.00 0.00 72 1019.3
20260505194551 43 86 0.9 5.2 0.00 0.00 0.00 72 1019.3
20260505193102 43 94 0.0 3.5 0.00 0.00 0.00 72 1019.1
20260505191557 44 0 0.0 6.1 0.00 0.00 0.00 71 1018.9
20260505190054 44 0 0.0 2.6 0.00 0.00 0.00 71 1018.9
20260505184550 44 84 0.9 3.5 0.00 0.00 0.00 71 1018.9
20260505183053 44 98 0.9 7.0 0.00 0.00 0.00 70 1018.7
20260505181559 44 82 1.7 4.3 0.00 0.00 0.00 70 1018.8
20260505180058 44 82 2.6 7.8 0.00 0.00 0.00 71 1018.8
20260505174602 44 94 0.9 6.1 0.00 0.00 0.00 70 1018.7
20260505173056 44 95 3.5 7.8 0.00 0.00 0.00 70 1018.6
20260505171556 44 76 2.6 6.1 0.00 0.00 0.00 70 1018.6
20260505170055 45 80 0.0 6.1 0.00 0.00 0.00 71 1018.5
20260505164602 45 78 4.3 8.7 0.00 0.00 0.00 70 1018.4
20260505163103 46 97 2.6 7.8 0.00 0.00 0.00 70 1018.4
20260505161609 46 90 2.6 7.8 0.00 0.00 0.00 69 1018.1
20260505153110 47 165 0.9 7.8 0.00 0.00 0.00 68 1018.1
20260505151559 47 93 1.7 9.6 0.00 0.00 0.00 70 1018.0
20260505150108 48 89 0.9 8.7 0.00 0.00 0.00 67 1017.9